Location: Hall+in+Tirol
(47.2830°N, 11.5170°E)
Time: 16:17:20
(UTC+01:00)

Amateur Radio Satellites - All Passes

Search period start: 24 January 2017 15:47
Search period end: 25 January 2017 15:47
Location: Hall+in+Tirol, 47.2830°N, 11.5170°E

Satellite Date Start Highest point End Downlink Frequencies (MHz)
Time Altitude Azimuth
CUTE-I 24 Jan 15:47:55 15:50:12 13° 53° (NE) 15:52:30 437.470
TISAT 1 24 Jan 15:49:53 15:50:26 10° 303° (WNW) 15:50:59 437.305
BRITE-PL 24 Jan 15:54:20 15:59:54 58° 72° (ENE) 16:05:17 437.365/2234.400
BEESAT 3 24 Jan 15:57:39 16:01:33 83° 308° (NW) 16:05:32 437.485
DOVE 4 24 Jan 15:57:41 15:59:14 12° 58° (ENE) 16:00:46 437.250
YUBILEINY 24 Jan 15:59:18 16:06:43 29° 298° (WNW) 16:14:11 435.215
DANDE 24 Jan 15:59:36 16:06:30 33° 273° (W) 16:13:39 436.750
AUBIESAT-1 24 Jan 16:03:25 16:05:19 14° 98° (E) 16:07:13 437.475
MOZHAYETS 4 24 Jan 16:11:34 16:16:15 77° 285° (WNW) 16:20:53
CUSAT 1 24 Jan 16:13:59 16:15:03 10° 289° (WNW) 16:16:06 437.405
KKS-1 24 Jan 16:19:53 16:24:07 42° 99° (E) 16:28:19 437.445
NOAA 15 24 Jan 16:23:24 16:27:39 25° 61° (ENE) 16:31:55 137.62
ITUPSAT 1 24 Jan 16:23:35 16:27:31 25° 297° (WNW) 16:31:26 437.325
Cosmos 2504 24 Jan 16:25:20 16:32:36 31° 294° (WNW) 16:39:31 435.465 / 435.565
Cubesat XI-IV 24 Jan 16:29:58 16:34:20 27° 61° (ENE) 16:38:42 437.490
HORYU 2 24 Jan 16:30:05 16:34:24 57° 71° (ENE) 16:38:45 437.375
LilacSat-2 24 Jan 16:35:40 16:38:35 21° 66° (ENE) 16:41:31 437.200
SO-50 24 Jan 16:47:28 16:50:38 19° 248° (WSW) 16:53:47 436.795
BEESAT 2 24 Jan 16:52:05 16:55:58 54° 311° (NW) 16:59:56 435.950
BEESAT 24 Jan 16:56:22 16:58:51 14° 304° (WNW) 17:01:19 436.000
AO-7 24 Jan 16:57:02 17:02:03 17° 274° (W) 17:07:07 29.400- 29.500
SWISSCUBE 24 Jan 16:58:54 17:00:52 12° 305° (NW) 17:02:51 437.505
STARS 24 Jan 17:00:48 17:05:06 51° 100° (E) 17:09:21 437.465
M-CUBED/EXP-1 PRIME 24 Jan 17:03:49 17:07:11 76° 289° (WNW) 17:10:25 437.505
CUBESAT XI-V 24 Jan 17:08:59 17:13:41 69° 102° (ESE) 17:18:20 437.345
NOAA 18 24 Jan 17:09:11 17:14:04 34° 63° (ENE) 17:18:56 137.9125
GOMX 1 24 Jan 17:14:25 17:19:42 67° 259° (W) 17:24:41 467.674
CUTE-I 24 Jan 17:24:04 17:29:20 72° 72° (ENE) 17:34:39 437.470
CANX-2 24 Jan 17:28:54 17:30:57 13° 59° (ENE) 17:33:01 2200.000
DOVE 4 24 Jan 17:31:25 17:36:16 79° 75° (ENE) 17:40:51 437.250
BRITE-PL 24 Jan 17:34:08 17:38:39 24° 269° (W) 17:43:06 437.365/2234.400
AUBIESAT-1 24 Jan 17:36:52 17:39:59 37° 295° (WNW) 17:43:02 437.475
BEESAT 3 24 Jan 17:37:20 17:39:48 16° 328° (NNW) 17:42:17 437.485
HO-68 24 Jan 17:43:34 17:49:56 35° 59° (ENE) 17:56:17 435.675
MOZHAYETS 4 24 Jan 17:51:05 17:52:36 11° 304° (NW) 17:54:07
AIST 2 24 Jan 17:52:40 17:55:23 17° 112° (ESE) 17:58:09 435.215
KKS-1 24 Jan 17:56:56 18:00:27 23° 297° (WNW) 18:03:57 437.445
NOAA 15 24 Jan 18:01:54 18:07:05 55° 260° (W) 18:12:20 137.62
HORYU 2 24 Jan 18:08:29 18:11:18 17° 269° (W) 18:14:10 437.375
Cubesat XI-IV 24 Jan 18:08:58 18:14:07 50° 260° (W) 18:19:19 437.490
LilacSat-2 24 Jan 18:09:15 18:12:41 33° 263° (W) 18:16:11 437.200
CINEMA 3 24 Jan 18:28:14 18:32:32 72° 75° (ENE) 18:36:44 145.822/145.860
Cosmos 2499 24 Jan 18:31:43 18:39:03 38° 87° (E) 18:45:56 435.465 / 435.565
CUTE 1.7 + AOD 2 24 Jan 18:31:57 18:36:01 45° 71° (ENE) 18:40:07 437.475
BEESAT 2 24 Jan 18:32:48 18:34:39 13° 333° (NNW) 18:36:30 435.950
STARS 24 Jan 18:37:59 18:41:05 19° 299° (WNW) 18:44:12 437.465
CUBESAT XI-V 24 Jan 18:47:33 18:50:32 17° 300° (WNW) 18:53:29 437.345
GONETS M04 24 Jan 18:49:12 18:57:06 41° 85° (E) 19:05:05
NOAA 18 24 Jan 18:49:29 18:54:38 40° 262° (W) 18:59:48 137.9125
CUBEBUG 2 24 Jan 18:53:24 18:57:06 32° 68° (ENE) 19:00:50 437.445
FUNcube-1 24 Jan 18:56:44 18:58:59 14° 60° (ENE) 19:01:14 145.935
COMPASS 1 24 Jan 19:00:31 19:04:28 41° 70° (ENE) 19:08:26 437.405
CANX-2 24 Jan 19:01:56 19:06:12 78° 257° (WSW) 19:10:31 2200.000
SEEDS 24 Jan 19:03:32 19:07:44 65° 74° (ENE) 19:11:58 437.485
STRAND 1 24 Jan 19:03:49 19:08:28 33° 96° (E) 19:13:05 437.568
CUTE-I 24 Jan 19:06:27 19:09:56 18° 271° (W) 19:13:26 437.470
AAUSAT CUBESAT 2 24 Jan 19:07:14 19:11:05 37° 70° (ENE) 19:14:59 437.432
AO-85 24 Jan 19:10:43 19:11:48 11° 23° (NNE) 19:12:52 145.980
DOVE 4 24 Jan 19:12:12 19:14:26 13° 271° (W) 19:16:39 437.250
UWE-3 24 Jan 19:12:16 19:15:58 33° 68° (ENE) 19:19:44 435.000/436.395/437.385
ZACube-1 24 Jan 19:21:04 19:24:30 26° 66° (ENE) 19:27:59 437.345
AIST 2 24 Jan 19:29:20 19:33:26 60° 311° (NW) 19:37:36 435.215
HO-68 24 Jan 19:30:19 19:37:22 56° 259° (WSW) 19:44:27 435.675
DELFI C3 24 Jan 19:46:17 19:48:31 15° 61° (ENE) 19:50:47 145.870
Oscar 11 24 Jan 19:48:14 19:52:18 42° 70° (ENE) 19:56:24 145.826/435.025
CINEMA 3 24 Jan 20:08:29 20:10:09 12° 271° (W) 20:11:49 145.822/145.860
CUTE 1.7 + AOD 2 24 Jan 20:08:57 20:12:04 20° 269° (W) 20:15:13 437.475
Cosmos 2499 24 Jan 20:24:05 20:32:01 51° 286° (WNW) 20:39:25 435.465 / 435.565
PRISM 24 Jan 20:24:29 20:24:44 10° 88° (E) 20:24:58 437.425
HUMSAT D 24 Jan 20:27:46 20:31:01 23° 64° (ENE) 20:34:18 437.325/437.525
CUBEBUG 2 24 Jan 20:30:21 20:33:47 25° 266° (W) 20:37:14 437.445
FUNcube-1 24 Jan 20:30:35 20:34:41 67° 258° (WSW) 20:38:54 145.935
COMPASS 1 24 Jan 20:36:59 20:40:11 21° 268° (W) 20:43:24 437.405
SEEDS 24 Jan 20:41:43 20:43:52 14° 272° (W) 20:46:01 437.485
STRAND 1 24 Jan 20:42:57 20:47:39 37° 294° (WNW) 20:52:21 437.568
AAUSAT CUBESAT 2 24 Jan 20:43:22 20:46:41 22° 267° (W) 20:50:02 437.432
GONETS M04 24 Jan 20:45:18 20:53:44 52° 288° (WNW) 21:02:17
UWE-3 24 Jan 20:49:04 20:52:30 25° 266° (W) 20:55:58 435.000/436.395/437.385
AO-85 24 Jan 20:49:28 20:53:17 43° 46° (NE) 20:57:00 145.980
ZACube-1 24 Jan 20:56:56 21:00:41 32° 264° (W) 21:04:29 437.345
ANTELSAT 24 Jan 21:03:25 21:03:54 10° 87° (E) 21:04:22 437.575/2403.000
AIST 2 24 Jan 21:10:28 21:12:46 14° 332° (NNW) 21:15:05 435.215
ISS 24 Jan 21:17:01 21:20:10 45° 146° (SSE) 21:23:18 145.825
DELFI C3 24 Jan 21:18:54 21:22:52 61° 259° (W) 21:26:53 145.870
Oscar 11 24 Jan 21:25:17 21:28:37 21° 268° (W) 21:31:59 145.826/435.025
RS-15 24 Jan 21:30:34 21:39:31 26° 100° (E) 21:48:41 29.354- 29.394
AISAT 24 Jan 21:54:26 21:56:25 13° 58° (ENE) 21:58:25 437.250
PRISM 24 Jan 21:56:28 22:00:36 82° 284° (WNW) 22:04:41 437.425
HUMSAT D 24 Jan 22:02:33 22:06:25 38° 263° (W) 22:10:21 437.325/437.525
UNISAT 6 24 Jan 22:08:29 22:12:49 46° 99° (E) 22:17:12 437.425
JAS-2 24 Jan 22:09:18 22:15:29 28° 91° (E) 22:21:56 435.910
YUBILEINY 24 Jan 22:13:24 22:15:13 11° 43° (NE) 22:17:01 435.215
TIGRISAT 24 Jan 22:20:19 22:24:43 57° 100° (E) 22:29:12 435.000
SPROUT 24 Jan 22:20:49 22:23:16 15° 60° (ENE) 22:25:44 437.525
BY70-1 24 Jan 22:23:11 22:26:20 81° 257° (WSW) 22:29:41 436.1900
Cosmos 2499 24 Jan 22:25:08 22:27:12 11° 310° (NW) 22:29:13 435.465 / 435.565
VELOX 1 24 Jan 22:25:43 22:29:13 23° 63° (ENE) 22:32:43 145.980
AO-85 24 Jan 22:30:23 22:33:24 21° 245° (WSW) 22:36:24 145.980
ESTCUBE 1 24 Jan 22:33:26 22:37:56 66° 73° (ENE) 22:42:29 437.505/2401.250
UKube-1 24 Jan 22:34:33 22:35:56 11° 56° (ENE) 22:37:19 .
BEESAT 3 24 Jan 22:34:33 22:37:53 24° 39° (NE) 22:41:11 437.485
ANTELSAT 24 Jan 22:36:45 22:41:14 87° 105° (ESE) 22:45:49 437.575/2403.000
QB50P1 24 Jan 22:41:37 22:42:18 10° 87° (E) 22:42:59 145.935-145.965
DX 1 24 Jan 22:42:59 22:45:56 18° 61° (ENE) 22:48:54 434.975-435.025
POLYITAN 1 24 Jan 22:46:23 22:48:04 12° 88° (E) 22:49:46 437.675
QB50P2 24 Jan 22:47:28 22:49:34 13° 89° (E) 22:51:39 145.880/145.840
GONETS M04 24 Jan 22:49:41 22:53:12 13° 314° (NW) 22:56:44
ISS 24 Jan 22:53:29 22:56:39 47° 346° (NNW) 22:59:49 145.825
CUBEBUG 1 24 Jan 22:58:59 23:03:22 72° 74° (ENE) 23:07:45 437.445
PCSat 24 Jan 23:05:17 23:09:32 24° 108° (ESE) 23:13:48 145.827
POPSAT HIP 1 24 Jan 23:06:58 23:10:03 19° 92° (E) 23:13:07 437.405
DUCHIFAT 1 24 Jan 23:11:52 23:14:52 19° 92° (E) 23:17:52 145.980
50 SAT 24 Jan 23:17:58 23:21:26 50° 73° (ENE) 23:24:56 437.505
NANOSAT C BR1 24 Jan 23:19:34 23:23:03 24° 94° (E) 23:26:31 145.865
AIST 1 24 Jan 23:24:31 23:27:26 18° 67° (ENE) 23:30:20
AISAT 24 Jan 23:27:48 23:32:14 87° 253° (WSW) 23:36:42 437.250
BEESAT 2 24 Jan 23:29:24 23:33:08 34° 44° (NE) 23:36:50 435.950
TISAT 1 24 Jan 23:32:34 23:34:37 13° 59° (ENE) 23:36:40 437.305
PRISM 24 Jan 23:34:50 23:35:10 10° 304° (NW) 23:35:28 437.425
RS-15 24 Jan 23:38:13 23:50:11 84° 124° (SE) 00:02:36 29.354- 29.394
UNISAT 6 24 Jan 23:45:49 23:49:16 22° 296° (WNW) 23:52:44 437.425
JAS-2 24 Jan 23:53:43 00:00:56 72° 289° (WNW) 00:08:43 435.910
SPROUT 24 Jan 23:54:30 23:58:42 65° 258° (WSW) 00:02:57 437.525
TIGRISAT 24 Jan 23:57:56 00:01:02 19° 298° (WNW) 00:04:09 435.000
VELOX 1 25 Jan 00:01:13 00:05:27 43° 261° (W) 00:09:41 145.980
YUBILEINY 25 Jan 00:06:38 00:15:02 44° 70° (ENE) 00:23:18 435.215
UKube-1 25 Jan 00:06:55 00:11:15 85° 78° (ENE) 00:15:36 .
BEESAT 3 25 Jan 00:11:51 00:15:44 49° 238° (WSW) 00:19:35 437.485
ESTCUBE 1 25 Jan 00:12:35 00:15:12 15° 271° (W) 00:17:51 437.505/2401.250
QB50P1 25 Jan 00:14:24 00:18:39 84° 285° (WNW) 00:22:53 145.935-145.965
ANTELSAT 25 Jan 00:15:16 00:17:20 13° 302° (WNW) 00:19:24 437.575/2403.000
DX 1 25 Jan 00:17:26 00:21:43 57° 259° (W) 00:26:02 434.975-435.025
Cosmos 2504 25 Jan 00:19:50 00:25:55 27° 63° (ENE) 00:31:49 435.465 / 435.565
POLYITAN 1 25 Jan 00:20:07 00:24:22 73° 286° (WNW) 00:28:36 437.675
ITUPSAT 1 25 Jan 00:20:59 00:22:36 12° 54° (NE) 00:24:13 437.325
QB50P2 25 Jan 00:21:35 00:25:48 66° 286° (WNW) 00:30:00 145.880/145.840
ISS 25 Jan 00:30:27 00:33:32 37° 6° (N) 00:36:36 145.825
AIST 2 25 Jan 00:32:48 00:33:42 11° 21° (NNE) 00:34:36 435.215
CUBEBUG 1 25 Jan 00:38:05 00:40:08 13° 271° (W) 00:42:12 437.445
POPSAT HIP 1 25 Jan 00:42:00 00:46:02 45° 290° (WNW) 00:50:05 437.405
DUCHIFAT 1 25 Jan 00:46:45 00:50:47 45° 289° (WNW) 00:54:48 145.980
PCSat 25 Jan 00:47:09 00:52:30 61° 307° (NW) 00:57:55 145.827
BEESAT 25 Jan 00:50:08 00:53:38 21° 61° (ENE) 00:57:09 436.000
SWISSCUBE 25 Jan 00:51:58 00:55:43 24° 62° (ENE) 00:59:30 437.505
50 SAT 25 Jan 00:53:18 00:54:56 13° 270° (W) 00:56:34 437.505
NANOSAT C BR1 25 Jan 00:55:00 00:58:51 35° 292° (WNW) 01:02:41 145.865
AIST 1 25 Jan 01:01:13 01:05:20 48° 266° (W) 01:09:25
Cosmos 2491 25 Jan 01:01:41 01:09:36 41° 86° (E) 01:17:33 435.465 / 435.565
BUGSAT 1 25 Jan 01:01:45 01:05:48 82° 286° (WNW) 01:09:53 437.445
TISAT 1 25 Jan 01:05:33 01:09:42 73° 256° (WSW) 01:13:53 437.305
BEESAT 2 25 Jan 01:07:15 01:10:53 32° 242° (WSW) 01:14:28 435.950
Oscar 19 25 Jan 01:19:31 01:24:24 40° 98° (E) 01:29:14 437.125/150
JAS-2 25 Jan 01:40:16 01:44:55 19° 308° (NW) 01:49:49 435.910
MOZHAYETS 4 25 Jan 01:40:49 01:44:03 19° 61° (ENE) 01:47:19
UKube-1 25 Jan 01:46:53 01:47:54 11° 272° (W) 01:48:53 .
CUSAT 1 25 Jan 01:50:08 01:55:09 29° 83° (E) 02:01:07 437.405
RS-15 25 Jan 01:52:39 02:04:09 45° 332° (NNW) 02:15:54 29.354- 29.394
QB50P1 25 Jan 01:52:42 01:53:43 11° 303° (WNW) 01:54:43 145.935-145.965
PHONESAT 2.4 25 Jan 01:54:40 01:56:03 15° 179° (S) 01:57:25 2401.200-2431.200
ITUPSAT 1 25 Jan 01:54:50 01:59:35 74° 73° (ENE) 02:04:23 437.325
YUBILEINY 25 Jan 02:03:36 02:11:55 48° 272° (W) 02:20:10 435.215
ISS 25 Jan 02:06:59 02:10:16 89° 181° (S) 02:13:30 145.825
AIST 2 25 Jan 02:09:30 02:13:24 35° 43° (NE) 02:17:19 435.215
Gurwin Techsat 1B 25 Jan 02:11:45 02:17:04 65° 102° (ESE) 02:22:20 435.225
Cosmos 2504 25 Jan 02:12:42 02:19:59 66° 266° (W) 02:27:02 435.465 / 435.565
ITAMSAT 1 25 Jan 02:14:09 02:17:08 15° 89° (E) 02:20:07 435.822/435.867
M-CUBED/EXP-1 PRIME 25 Jan 02:18:39 02:21:59 24° 61° (ENE) 02:25:08 437.505
BEESAT 25 Jan 02:26:22 02:31:02 56° 259° (W) 02:35:44 436.000
SWISSCUBE 25 Jan 02:28:38 02:33:13 48° 260° (W) 02:37:53 437.505
PCSat 25 Jan 02:33:31 02:37:02 17° 330° (NNW) 02:40:34 145.827
CUBESAT XI-V 25 Jan 02:40:32 02:42:56 14° 58° (ENE) 02:45:21 437.345
AUBIESAT-1 25 Jan 02:50:33 02:54:22 40° 65° (ENE) 02:57:57 437.475
Cosmos 2491 25 Jan 02:57:52 03:06:16 51° 288° (WNW) 03:14:46 435.465 / 435.565
AO-7 25 Jan 02:58:01 03:05:14 31° 94° (E) 03:12:21 29.400- 29.500
Oscar 19 25 Jan 02:59:07 03:03:36 31° 296° (WNW) 03:08:04 437.125/150
MOZHAYETS 4 25 Jan 03:16:18 03:20:48 57° 259° (W) 03:25:23
KKS-1 25 Jan 03:20:37 03:24:58 57° 71° (ENE) 03:29:20 437.445
DANDE 25 Jan 03:28:25 03:32:44 49° 92° (E) 03:38:32 436.750
CUSAT 1 25 Jan 03:30:42 03:36:30 57° 288° (WNW) 03:43:46 437.405
ITUPSAT 1 25 Jan 03:35:23 03:37:58 14° 271° (W) 03:40:36 437.325
ISS 25 Jan 03:44:11 03:46:21 17° 223° (SW) 03:48:30 145.825
AIST 2 25 Jan 03:48:02 03:51:53 34° 242° (WSW) 03:55:42 435.215
ITAMSAT 1 25 Jan 03:51:59 03:57:14 80° 287° (WNW) 04:02:27 435.822/435.867
M-CUBED/EXP-1 PRIME 25 Jan 03:52:26 03:56:20 36° 256° (WSW) 03:59:59 437.505
Gurwin Techsat 1B 25 Jan 03:52:35 03:56:33 22° 301° (WNW) 04:00:30 435.225
BRITE-PL 25 Jan 03:58:29 04:00:36 13° 85° (E) 04:02:39 437.365/2234.400
STARS 25 Jan 04:00:06 04:04:26 68° 73° (ENE) 04:08:47 437.465
Cosmos 2504 25 Jan 04:09:38 04:11:42 11° 288° (WNW) 04:13:47 435.465 / 435.565
RS-15 25 Jan 04:09:40 04:20:40 35° 6° (N) 04:31:36 29.354- 29.394
CUBESAT XI-V 25 Jan 04:14:55 04:19:38 87° 255° (WSW) 04:24:24 437.345
Cosmos 2499 25 Jan 04:19:51 04:23:31 14° 54° (NE) 04:27:10 435.465 / 435.565
O/OREOS (USA 219) 25 Jan 04:24:06 04:25:48 12° 98° (E) 04:27:30 437.305
AUBIESAT-1 25 Jan 04:25:47 04:28:53 20° 260° (W) 04:31:50 437.475
STRAND 1 25 Jan 04:48:00 04:49:26 11° 52° (NE) 04:50:52 437.568
AO-7 25 Jan 04:50:18 04:58:37 69° 295° (WNW) 05:06:51 29.400- 29.500
GONETS M04 25 Jan 04:54:57 05:01:57 25° 60° (ENE) 05:08:55
KKS-1 25 Jan 04:59:03 05:01:54 17° 269° (W) 05:04:45 437.445
Cosmos 2491 25 Jan 05:02:23 05:05:45 12° 314° (NW) 05:09:08 435.465 / 435.565
DANDE 25 Jan 05:12:00 05:16:00 25° 301° (WNW) 05:20:59 436.750
GOMX 1 25 Jan 05:13:52 05:17:32 26° 93° (E) 05:21:05 467.674
CUSAT 1 25 Jan 05:17:11 05:20:26 14° 313° (NW) 05:23:58 437.405
DOVE 4 25 Jan 05:28:26 05:30:44 14° 89° (E) 05:33:01 437.250
ITAMSAT 1 25 Jan 05:33:15 05:35:53 14° 306° (NW) 05:38:32 435.822/435.867
BRITE-PL 25 Jan 05:35:00 05:39:50 76° 285° (WNW) 05:44:15 437.365/2234.400
CUTE-I 25 Jan 05:38:30 05:42:37 22° 92° (E) 05:46:44 437.470
STARS 25 Jan 05:39:02 05:41:15 14° 270° (W) 05:43:28 437.465
LilacSat-2 25 Jan 05:39:28 05:42:25 20° 93° (E) 05:45:22 437.200
HORYU 2 25 Jan 05:53:57 05:58:26 73° 104° (ESE) 06:02:53 437.375
CUBESAT XI-V 25 Jan 05:56:29 05:57:43 11° 274° (W) 05:58:58 437.345
O/OREOS (USA 219) 25 Jan 06:00:03 06:04:31 81° 296° (WNW) 06:09:01 437.305
PCSat 25 Jan 06:06:17 06:08:56 14° 23° (NNE) 06:11:37 145.827
Cosmos 2499 25 Jan 06:11:05 06:18:13 70° 78° (ENE) 06:25:16 435.465 / 435.565
NOAA 15 25 Jan 06:13:43 06:18:49 44° 99° (E) 06:23:51 137.62
CINEMA 3 25 Jan 06:20:53 06:22:48 13° 89° (E) 06:24:45 145.822/145.860
STRAND 1 25 Jan 06:22:36 06:27:38 65° 71° (ENE) 06:32:43 437.568
Cubesat XI-IV 25 Jan 06:22:40 06:27:53 51° 100° (E) 06:33:05 437.490
RS-15 25 Jan 06:24:22 06:36:35 56° 38° (NE) 06:48:25 29.354- 29.394
AO-7 25 Jan 06:44:19 06:49:59 21° 317° (NW) 06:55:38 29.400- 29.500
CANX-2 25 Jan 06:44:58 06:47:31 15° 89° (E) 06:50:03 2200.000
GONETS M04 25 Jan 06:51:06 07:00:00 86° 262° (W) 07:08:51
GOMX 1 25 Jan 06:51:48 06:55:43 32° 293° (WNW) 06:59:27 467.674
HO-68 25 Jan 06:54:57 07:00:44 25° 91° (E) 07:06:27 435.675
SO-50 25 Jan 07:02:52 07:07:32 63° 123° (ESE) 07:12:08 436.795
DOVE 4 25 Jan 07:04:45 07:08:51 56° 288° (WNW) 07:12:54 437.250
NOAA 18 25 Jan 07:07:42 07:13:09 66° 103° (ESE) 07:18:35 137.9125
LilacSat-2 25 Jan 07:13:15 07:16:49 35° 290° (WNW) 07:20:22 437.200
PRISM 25 Jan 07:15:45 07:17:44 13° 59° (ENE) 07:19:42 437.425
BRITE-PL 25 Jan 07:15:55 07:17:22 11° 306° (NW) 07:18:46 437.365/2234.400
CUTE-I 25 Jan 07:17:48 07:23:02 58° 290° (WNW) 07:28:16 437.470
HORYU 2 25 Jan 07:31:52 07:34:26 15° 301° (WNW) 07:37:00 437.375
O/OREOS (USA 219) 25 Jan 07:42:30 07:44:42 13° 316° (NW) 07:46:55 437.305
PCSat 25 Jan 07:48:42 07:53:52 42° 47° (NE) 07:58:59 145.827
CUTE 1.7 + AOD 2 25 Jan 07:49:06 07:53:22 58° 100° (E) 07:57:35 437.475
NOAA 15 25 Jan 07:53:51 07:58:24 30° 297° (WNW) 08:02:56 137.62
CINEMA 3 25 Jan 07:56:12 08:00:24 69° 286° (WNW) 08:04:44 145.822/145.860
Cubesat XI-IV 25 Jan 08:03:17 08:07:41 27° 298° (WNW) 08:12:05 437.490
STRAND 1 25 Jan 08:03:48 08:07:17 18° 270° (W) 08:10:48 437.568
ANTELSAT 25 Jan 08:04:31 08:06:39 14° 59° (ENE) 08:08:47 437.575/2403.000
Cosmos 2499 25 Jan 08:05:21 08:10:36 23° 279° (W) 08:15:50 435.465 / 435.565
COMPASS 1 25 Jan 08:15:14 08:19:21 50° 99° (E) 08:23:25 437.405
FUNcube-1 25 Jan 08:15:43 08:18:55 19° 92° (E) 08:22:09 145.935
CUBEBUG 2 25 Jan 08:16:27 08:20:44 50° 99° (E) 08:25:08 437.445
CANX-2 25 Jan 08:19:31 08:23:46 59° 287° (WNW) 08:27:59 2200.000
SEEDS 25 Jan 08:19:40 08:23:57 84° 102° (ESE) 08:28:12 437.485
AAUSAT CUBESAT 2 25 Jan 08:21:15 08:25:17 44° 98° (E) 08:29:16 437.432
JAS-2 25 Jan 08:28:01 08:31:13 15° 49° (NE) 08:34:34 435.910
UWE-3 25 Jan 08:34:01 08:38:19 49° 99° (E) 08:42:43 435.000/436.395/437.385
RS-15 25 Jan 08:37:26 08:49:25 60° 245° (WSW) 09:00:58 29.354- 29.394
ZACube-1 25 Jan 08:41:13 08:45:20 36° 97° (E) 08:49:29 437.345
HO-68 25 Jan 08:41:55 08:49:04 72° 292° (WNW) 08:56:11 435.675
SO-50 25 Jan 08:44:25 08:48:21 26° 323° (NW) 08:52:15 436.795
PRISM 25 Jan 08:48:17 08:52:27 76° 257° (WSW) 08:56:38 437.425
NOAA 18 25 Jan 08:49:15 08:53:21 22° 302° (WNW) 08:57:26 137.9125
GONETS M04 25 Jan 08:49:35 08:55:30 20° 285° (WNW) 09:01:24
DELFI C3 25 Jan 08:54:21 08:56:26 14° 89° (E) 08:58:29 145.870
CUTE-I 25 Jan 09:00:58 09:02:00 11° 310° (NW) 09:03:02 437.470
Oscar 11 25 Jan 09:07:55 09:12:14 56° 100° (E) 09:16:31 145.826/435.025
UNISAT 6 25 Jan 09:10:18 09:14:28 57° 72° (ENE) 09:18:42 437.425
TIGRISAT 25 Jan 09:21:57 09:26:10 70° 74° (ENE) 09:30:27 435.000
CUTE 1.7 + AOD 2 25 Jan 09:26:00 09:28:47 17° 298° (WNW) 09:31:32 437.475
PCSat 25 Jan 09:32:15 09:37:14 37° 247° (WSW) 09:42:10 145.827
QB50P1 25 Jan 09:36:30 09:38:28 13° 59° (ENE) 09:40:26 145.935-145.965
ANTELSAT 25 Jan 09:38:32 09:42:47 75° 257° (WSW) 09:47:06 437.575/2403.000
POLYITAN 1 25 Jan 09:41:54 09:44:15 15° 60° (ENE) 09:46:37 437.675
HUMSAT D 25 Jan 09:42:31 09:46:11 27° 94° (E) 09:49:51 437.325/437.525
QB50P2 25 Jan 09:43:04 09:45:40 16° 61° (ENE) 09:48:16 145.880/145.840
FUNcube-1 25 Jan 09:51:08 09:55:24 50° 289° (WNW) 09:59:44 145.935
COMPASS 1 25 Jan 09:51:37 09:54:32 18° 297° (WNW) 09:57:27 437.405
CUBEBUG 2 25 Jan 09:53:51 09:57:03 20° 296° (WNW) 10:00:19 437.445
SEEDS 25 Jan 09:57:14 09:59:01 12° 301° (WNW) 10:00:46 437.485
AAUSAT CUBESAT 2 25 Jan 09:57:24 10:00:28 20° 296° (WNW) 10:03:30 437.432
POPSAT HIP 1 25 Jan 10:02:27 10:05:41 22° 64° (ENE) 10:08:57 437.405
DUCHIFAT 1 25 Jan 10:06:41 10:09:51 21° 64° (ENE) 10:13:02 145.980
JAS-2 25 Jan 10:09:34 10:15:05 75° 72° (ENE) 10:21:20 435.910
UWE-3 25 Jan 10:11:13 10:14:29 21° 296° (WNW) 10:17:48 435.000/436.395/437.385
NANOSAT C BR1 25 Jan 10:14:35 10:18:07 27° 66° (ENE) 10:21:41 145.865
ZACube-1 25 Jan 10:17:46 10:21:28 27° 294° (WNW) 10:25:13 437.345
BUGSAT 1 25 Jan 10:21:52 10:23:22 12° 59° (ENE) 10:24:53 437.445
ESTCUBE 1 25 Jan 10:25:08 10:26:26 11° 87° (E) 10:27:45 437.505/2401.250
DELFI C3 25 Jan 10:27:40 10:31:36 57° 287° (WNW) 10:35:29 145.870
SO-50 25 Jan 10:29:46 10:30:25 10° 347° (NNW) 10:31:05 436.795
HO-68 25 Jan 10:31:06 10:35:38 18° 312° (NW) 10:40:08 435.675
Oscar 11 25 Jan 10:45:00 10:47:58 18° 298° (WNW) 10:50:55 145.826/435.025
CUBEBUG 1 25 Jan 10:47:18 10:47:54 10° 87° (E) 10:48:30 437.445
UNISAT 6 25 Jan 10:49:04 10:51:35 15° 270° (W) 10:54:08 437.425
RS-15 25 Jan 10:53:25 10:59:00 15° 268° (W) 11:04:31 29.354- 29.394
BY70-1 25 Jan 10:54:22 10:57:12 30° 97° (E) 10:59:51 436.1900
TIGRISAT 25 Jan 11:01:35 11:03:23 12° 272° (W) 11:05:12 435.000
Oscar 19 25 Jan 11:03:19 11:05:56 14° 55° (NE) 11:08:34 437.125/150
Cosmos 2491 25 Jan 11:07:33 11:14:31 25° 60° (ENE) 11:21:27 435.465 / 435.565
QB50P1 25 Jan 11:09:28 11:13:39 77° 257° (WSW) 11:17:52 145.935-145.965
POLYITAN 1 25 Jan 11:15:24 11:19:33 66° 258° (WSW) 11:23:45 437.675
AISAT 25 Jan 11:16:09 11:18:28 14° 89° (E) 11:20:47 437.250
QB50P2 25 Jan 11:16:53 11:21:01 59° 259° (W) 11:25:12 145.880/145.840
HUMSAT D 25 Jan 11:17:57 11:21:49 33° 292° (WNW) 11:25:41 437.325/437.525
POPSAT HIP 1 25 Jan 11:37:19 11:41:15 39° 262° (W) 11:45:13 437.405
SPROUT 25 Jan 11:37:58 11:40:45 17° 91° (E) 11:43:33 437.525
DUCHIFAT 1 25 Jan 11:41:21 11:45:18 41° 262° (W) 11:49:16 145.980
VELOX 1 25 Jan 11:48:06 11:51:53 27° 95° (E) 11:55:38 145.980
NANOSAT C BR1 25 Jan 11:50:03 11:53:46 31° 264° (W) 11:57:31 145.865
UKube-1 25 Jan 11:53:13 11:54:22 11° 88° (E) 11:55:32 .
BUGSAT 1 25 Jan 11:54:08 11:58:10 79° 257° (WSW) 12:02:12 437.445
JAS-2 25 Jan 11:57:19 12:01:04 18° 274° (W) 12:05:05 435.910
Gurwin Techsat 1B 25 Jan 11:57:51 12:01:53 23° 60° (ENE) 12:05:57 435.225
ESTCUBE 1 25 Jan 11:59:20 12:03:54 87° 287° (WNW) 12:08:25 437.505/2401.250
DX 1 25 Jan 12:03:04 12:06:13 19° 92° (E) 12:09:20 434.975-435.025
AO-7 25 Jan 12:12:13 12:17:05 17° 39° (NE) 12:21:59 29.400- 29.500
SO-50 25 Jan 12:12:44 12:13:04 10° 12° (NNE) 12:13:24 436.795
50 SAT 25 Jan 12:13:29 12:16:47 35° 98° (E) 12:20:02 437.505
CUSAT 1 25 Jan 12:18:47 12:25:52 33° 63° (ENE) 12:32:23 437.405
DANDE 25 Jan 12:19:29 12:24:20 17° 54° (NE) 12:29:22 436.750
CUBEBUG 1 25 Jan 12:20:28 12:24:49 87° 290° (WNW) 12:29:08 437.445
BY70-1 25 Jan 12:25:09 12:27:08 16° 296° (WNW) 12:29:02 436.1900
Oscar 19 25 Jan 12:39:15 12:44:27 81° 72° (ENE) 12:49:41 437.125/150
AO-85 25 Jan 12:46:12 12:50:40 48° 122° (ESE) 12:54:51 145.980
TISAT 1 25 Jan 12:47:35 12:49:42 14° 90° (E) 12:51:48 437.305
AISAT 25 Jan 12:51:01 12:55:24 66° 287° (WNW) 12:59:44 437.250
Cosmos 2504 25 Jan 13:03:09 13:09:05 22° 79° (E) 13:14:46 435.465 / 435.565
Cosmos 2491 25 Jan 13:03:43 13:12:33 85° 263° (W) 13:21:23 435.465 / 435.565
YUBILEINY 25 Jan 13:11:33 13:19:45 45° 87° (E) 13:27:58 435.215
SPROUT 25 Jan 13:12:51 13:16:59 52° 288° (WNW) 13:21:07 437.525
VELOX 1 25 Jan 13:24:24 13:28:22 34° 293° (WNW) 13:32:18 145.980
UKube-1 25 Jan 13:26:40 13:31:00 82° 283° (WNW) 13:35:17 .
AIST 1 25 Jan 13:33:03 13:37:24 82° 99° (E) 13:41:45
ITAMSAT 1 25 Jan 13:34:33 13:39:07 33° 64° (ENE) 13:43:42 435.822/435.867
Gurwin Techsat 1B 25 Jan 13:36:10 13:41:25 61° 259° (W) 13:46:43 435.225
ESTCUBE 1 25 Jan 13:38:07 13:39:59 12° 303° (WNW) 13:41:51 437.505/2401.250
DX 1 25 Jan 13:38:29 13:42:39 47° 290° (WNW) 13:46:48 434.975-435.025
50 SAT 25 Jan 13:47:16 13:49:44 18° 296° (WNW) 13:52:11 437.505
SO-50 25 Jan 13:51:21 13:55:10 25° 36° (NE) 13:58:54 436.795
ITUPSAT 1 25 Jan 13:53:26 13:56:12 15° 89° (E) 13:58:58 437.325
CUBEBUG 1 25 Jan 13:58:59 14:00:23 11° 303° (WNW) 14:01:48 437.445
AO-7 25 Jan 14:00:02 14:08:08 57° 62° (ENE) 14:16:15 29.400- 29.500
CUSAT 1 25 Jan 14:00:29 14:08:23 65° 265° (W) 14:15:26 437.405
DANDE 25 Jan 14:00:42 14:08:38 61° 74° (ENE) 14:16:51 436.750
BEESAT 3 25 Jan 14:07:05 14:08:23 11° 109° (ESE) 14:09:41 437.485
Oscar 19 25 Jan 14:21:27 14:24:24 15° 272° (W) 14:27:21 437.125/150
TISAT 1 25 Jan 14:21:36 14:25:45 64° 287° (WNW) 14:29:53 437.305
BEESAT 25 Jan 14:23:23 14:27:33 29° 95° (E) 14:31:42 436.000
SWISSCUBE 25 Jan 14:25:29 14:29:51 33° 96° (E) 14:34:11 437.505
AO-85 25 Jan 14:27:22 14:31:16 28° 319° (NW) 14:34:57 145.980
O/OREOS (USA 219) 25 Jan 14:27:45 14:32:02 42° 58° (ENE) 14:36:20 437.305
Cosmos 2504 25 Jan 14:53:00 15:01:33 87° 279° (W) 15:09:32 435.465 / 435.565
BEESAT 2 25 Jan 15:02:02 15:04:51 19° 113° (ESE) 15:07:43 435.950
Cosmos 2491 25 Jan 15:02:15 15:08:04 20° 285° (WNW) 15:13:54 435.465 / 435.565
UKube-1 25 Jan 15:05:07 15:06:17 11° 304° (NW) 15:07:28 .
YUBILEINY 25 Jan 15:08:04 15:16:30 48° 289° (WNW) 15:25:01 435.215
MOZHAYETS 4 25 Jan 15:08:18 15:12:16 27° 94° (E) 15:16:12
BRITE-PL 25 Jan 15:10:21 15:15:00 27° 64° (ENE) 15:19:29 437.365/2234.400
ITAMSAT 1 25 Jan 15:13:43 15:18:31 38° 263° (W) 15:23:21 435.822/435.867
AIST 1 25 Jan 15:14:01 15:15:37 12° 297° (WNW) 15:17:13
HORYU 2 25 Jan 15:21:05 15:23:12 13° 57° (ENE) 15:25:20 437.375
ITUPSAT 1 25 Jan 15:29:45 15:34:34 72° 287° (WNW) 15:39:21 437.325
SO-50 25 Jan 15:31:31 15:35:58 61° 237° (WSW) 15:40:23 436.795
